Time,TemperatureF,DewpointF,PressureIn,WindDirection,WindDirectionDegrees,WindSpeedMPH,WindSpeedGustMPH,Humidity,HourlyPrecipIn,Conditions,Clouds,dailyrainin,SolarRadiationWatts/m^2,SoftwareType,DateUTC
2013-01-28 00:21:00,28.0,27.0,-100.00,North,2,4.0,9.0,97,0.00,,,0.00,0.000000,,2013-01-28 07:21:00,
2013-01-28 00:32:00,28.0,27.0,-100.00,North,2,4.0,9.0,97,0.00,,,0.00,0.000000,,2013-01-28 07:32:00,
2013-01-28 00:42:00,28.0,27.0,-100.00,North,2,4.0,9.0,97,0.00,,,0.00,0.000000,,2013-01-28 07:42:00,
2013-01-28 00:51:00,28.0,27.0,-100.00,NNE,12,6.0,9.0,96,0.00,,,0.00,0.000000,,2013-01-28 07:51:00,
2013-01-28 01:21:00,28.0,27.0,-100.00,NNE,12,6.0,9.0,96,0.00,,,0.00,0.000000,,2013-01-28 08:21:00,
2013-01-28 01:32:00,28.0,27.0,-100.00,NNE,12,6.0,9.0,96,0.00,,,0.00,0.000000,,2013-01-28 08:32:00,
2013-01-28 01:42:00,28.0,27.0,-100.00,NNE,12,6.0,9.0,96,0.00,,,0.00,0.000000,,2013-01-28 08:42:00,
2013-01-28 01:51:00,27.0,26.0,-100.00,North,2,9.0,13.0,95,0.00,,,0.00,0.000000,,2013-01-28 08:51:00,
2013-01-28 02:11:00,27.0,26.0,-100.00,North,2,9.0,13.0,95,0.00,,,0.00,0.000000,,2013-01-28 09:11:00,
2013-01-28 02:22:00,27.0,26.0,-100.00,North,2,9.0,13.0,95,0.00,,,0.00,0.000000,,2013-01-28 09:22:00,
2013-01-28 02:32:00,27.0,26.0,-100.00,North,2,9.0,13.0,95,0.00,,,0.00,0.000000,,2013-01-28 09:32:00,
2013-01-28 02:42:00,27.0,26.0,-100.00,North,2,9.0,13.0,95,0.00,,,0.00,0.000000,,2013-01-28 09:42:00,
2013-01-28 02:51:00,27.0,26.0,-100.00,North,358,7.0,11.0,95,0.00,,,0.00,0.000000,,2013-01-28 09:51:00,
2013-01-28 03:21:00,27.0,26.0,-100.00,North,358,7.0,11.0,95,0.00,,,0.00,0.000000,,2013-01-28 10:21:00,
2013-01-28 03:32:00,27.0,26.0,-100.00,North,358,7.0,11.0,95,0.00,,,0.00,0.000000,,2013-01-28 10:32:00,
2013-01-28 03:42:00,27.0,26.0,-100.00,North,358,7.0,11.0,95,0.00,,,0.00,0.000000,,2013-01-28 10:42:00,
2013-01-28 03:51:00,27.0,26.0,-100.00,North,359,5.0,11.0,96,0.00,,,0.00,0.000000,,2013-01-28 10:51:00,
2013-01-28 04:11:00,27.0,26.0,-100.00,North,359,5.0,11.0,96,0.00,,,0.00,0.000000,,2013-01-28 11:11:00,
2013-01-28 04:22:00,27.0,26.0,-100.00,North,359,5.0,11.0,96,0.00,,,0.00,0.000000,,2013-01-28 11:22:00,
2013-01-28 04:32:00,27.0,26.0,-100.00,North,359,5.0,11.0,96,0.00,,,0.00,0.000000,,2013-01-28 11:32:00,
2013-01-28 04:42:00,27.0,26.0,-100.00,North,359,5.0,11.0,96,0.00,,,0.00,0.000000,,2013-01-28 11:42:00,
2013-01-28 04:51:00,27.0,26.0,-100.00,NNW,345,3.0,6.0,96,0.00,,,0.00,0.000000,,2013-01-28 11:51:00,
2013-01-28 05:12:00,27.0,26.0,-100.00,NNW,345,3.0,6.0,96,0.00,,,0.00,0.000000,,2013-01-28 12:12:00,
2013-01-28 05:23:00,27.0,26.0,-100.00,NNW,345,3.0,6.0,96,0.00,,,0.00,0.000000,,2013-01-28 12:23:00,
2013-01-28 05:33:00,27.0,26.0,-100.00,NNW,345,3.0,6.0,96,0.00,,,0.00,0.000000,,2013-01-28 12:33:00,
2013-01-28 05:42:00,27.0,26.0,-100.00,NNW,345,3.0,6.0,96,0.00,,,0.00,0.000000,,2013-01-28 12:42:00,
2013-01-28 05:51:00,27.0,27.0,-100.00,NNW,340,6.0,8.0,98,0.00,,,0.00,0.000000,,2013-01-28 12:51:00,
2013-01-28 06:23:00,27.0,27.0,-100.00,NNW,340,6.0,8.0,98,0.00,,,0.00,0.000000,,2013-01-28 13:23:00,
2013-01-28 06:33:00,27.0,27.0,-100.00,NNW,340,6.0,8.0,98,0.00,,,0.00,0.000000,,2013-01-28 13:33:00,
2013-01-28 06:42:00,27.0,27.0,-100.00,NNW,340,6.0,8.0,98,0.00,,,0.00,0.000000,,2013-01-28 13:42:00,
2013-01-28 06:51:00,26.0,25.0,-100.00,North,359,4.0,10.0,97,0.00,,,0.00,0.000000,,2013-01-28 13:51:00,
2013-01-28 07:12:00,26.0,25.0,-100.00,North,359,4.0,10.0,97,0.00,,,0.00,0.000000,,2013-01-28 14:12:00,
2013-01-28 07:22:00,26.0,25.0,-100.00,North,359,4.0,10.0,97,0.00,,,0.00,0.000000,,2013-01-28 14:22:00,
2013-01-28 07:33:00,26.0,25.0,-100.00,North,359,4.0,10.0,97,0.00,,,0.00,0.000000,,2013-01-28 14:33:00,
2013-01-28 07:43:00,26.0,25.0,-100.00,North,359,4.0,10.0,97,0.00,,,0.00,0.000000,,2013-01-28 14:43:00,
2013-01-28 07:51:00,26.0,25.0,-100.00,NNW,337,5.0,9.0,97,0.00,,,0.00,1.000000,,2013-01-28 14:51:00,
2013-01-28 08:23:00,26.0,25.0,-100.00,NNW,337,5.0,9.0,97,0.00,,,0.00,1.000000,,2013-01-28 15:23:00,
2013-01-28 08:33:00,26.0,25.0,-100.00,NNW,337,5.0,9.0,97,0.00,,,0.00,1.000000,,2013-01-28 15:33:00,
2013-01-28 08:43:00,26.0,25.0,-100.00,NNW,337,5.0,9.0,97,0.00,,,0.00,1.000000,,2013-01-28 15:43:00,
2013-01-28 08:51:00,26.0,25.0,-100.00,NNW,333,9.0,13.0,97,0.00,,,0.00,40.000000,,2013-01-28 15:51:00,
2013-01-28 09:22:00,26.0,25.0,-100.00,NNW,333,9.0,13.0,97,0.00,,,0.00,40.000000,,2013-01-28 16:22:00,
2013-01-28 09:32:00,26.0,25.0,-100.00,NNW,333,9.0,13.0,97,0.00,,,0.00,40.000000,,2013-01-28 16:32:00,
2013-01-28 09:43:00,26.0,25.0,-100.00,NNW,333,9.0,13.0,97,0.00,,,0.00,40.000000,,2013-01-28 16:43:00,
2013-01-28 09:51:00,27.0,25.0,-100.00,NW,318,8.0,14.0,92,0.00,,,0.00,126.000000,,2013-01-28 16:51:00,
2013-01-28 10:12:00,27.0,25.0,-100.00,NW,318,8.0,14.0,92,0.00,,,0.00,126.000000,,2013-01-28 17:12:00,
2013-01-28 10:23:00,27.0,25.0,-100.00,NW,318,8.0,14.0,92,0.00,,,0.00,126.000000,,2013-01-28 17:23:00,
2013-01-28 10:32:00,27.0,25.0,-100.00,NW,318,8.0,14.0,92,0.00,,,0.00,126.000000,,2013-01-28 17:32:00,
2013-01-28 10:42:00,27.0,25.0,-100.00,NW,318,8.0,14.0,92,0.00,,,0.00,126.000000,,2013-01-28 17:42:00,
2013-01-28 10:51:00,27.0,24.0,-100.00,NW,311,6.0,10.0,87,0.00,,,0.00,180.000000,,2013-01-28 17:51:00,
2013-01-28 11:23:00,27.0,24.0,-100.00,NW,311,6.0,10.0,87,0.00,,,0.00,180.000000,,2013-01-28 18:23:00,
2013-01-28 11:33:00,27.0,24.0,-100.00,NW,311,6.0,10.0,87,0.00,,,0.00,180.000000,,2013-01-28 18:33:00,
2013-01-28 11:42:00,27.0,24.0,-100.00,NW,311,6.0,10.0,87,0.00,,,0.00,180.000000,,2013-01-28 18:42:00,
2013-01-28 11:51:00,30.0,23.0,-100.00,ENE,77,8.0,11.0,75,0.00,,,0.00,348.000000,,2013-01-28 18:51:00,
2013-01-28 12:22:00,30.0,23.0,-100.00,ENE,77,8.0,11.0,75,0.00,,,0.00,348.000000,,2013-01-28 19:22:00,
2013-01-28 12:33:00,30.0,23.0,-100.00,ENE,77,8.0,11.0,75,0.00,,,0.00,348.000000,,2013-01-28 19:33:00,
2013-01-28 12:42:00,30.0,23.0,-100.00,ENE,77,8.0,11.0,75,0.00,,,0.00,348.000000,,2013-01-28 19:42:00,
2013-01-28 12:51:00,29.0,23.0,-100.00,SW,233,5.0,12.0,78,0.00,,,0.00,205.000000,,2013-01-28 19:51:00,
2013-01-28 13:22:00,29.0,23.0,-100.00,SW,233,5.0,12.0,78,0.00,,,0.00,205.000000,,2013-01-28 20:22:00,
2013-01-28 13:33:00,29.0,23.0,-100.00,SW,233,5.0,12.0,78,0.00,,,0.00,205.000000,,2013-01-28 20:33:00,
2013-01-28 13:42:00,29.0,23.0,-100.00,SW,233,5.0,12.0,78,0.00,,,0.00,205.000000,,2013-01-28 20:42:00,
2013-01-28 13:51:00,29.0,25.0,-100.00,NNW,336,8.0,12.0,85,0.00,,,0.00,173.000000,,2013-01-28 20:51:00,
2013-01-28 14:22:00,29.0,25.0,-100.00,NNW,336,8.0,12.0,85,0.00,,,0.00,173.000000,,2013-01-28 21:22:00,
2013-01-28 14:33:00,29.0,25.0,-100.00,NNW,336,8.0,12.0,85,0.00,,,0.00,173.000000,,2013-01-28 21:33:00,
2013-01-28 14:43:00,29.0,25.0,-100.00,NNW,336,8.0,12.0,85,0.00,,,0.00,173.000000,,2013-01-28 21:43:00,
2013-01-28 14:51:00,29.0,25.0,-100.00,NNW,329,9.0,13.0,85,0.00,,,0.00,167.000000,,2013-01-28 21:51:00,
2013-01-28 15:23:00,29.0,25.0,-100.00,NNW,329,9.0,13.0,85,0.00,,,0.00,167.000000,,2013-01-28 22:23:00,
2013-01-28 15:32:00,29.0,25.0,-100.00,NNW,329,9.0,13.0,85,0.00,,,0.00,167.000000,,2013-01-28 22:32:00,
2013-01-28 15:42:00,29.0,25.0,-100.00,NNW,329,9.0,13.0,85,0.00,,,0.00,167.000000,,2013-01-28 22:42:00,
2013-01-28 15:51:00,28.0,24.0,-100.00,NW,304,9.0,13.0,86,0.00,,,0.00,94.000000,,2013-01-28 22:51:00,
2013-01-28 16:12:00,28.0,24.0,-100.00,NW,304,9.0,13.0,86,0.00,,,0.00,94.000000,,2013-01-28 23:12:00,
2013-01-28 16:22:00,28.0,24.0,-100.00,NW,304,9.0,13.0,86,0.00,,,0.00,94.000000,,2013-01-28 23:22:00,
2013-01-28 16:32:00,28.0,24.0,-100.00,NW,304,9.0,13.0,86,0.00,,,0.00,94.000000,,2013-01-28 23:32:00,
2013-01-28 16:42:00,28.0,24.0,-100.00,NW,304,9.0,13.0,86,0.00,,,0.00,94.000000,,2013-01-28 23:42:00,
2013-01-28 16:51:00,27.0,24.0,-100.00,WNW,303,7.0,12.0,89,0.00,,,0.00,30.000000,,2013-01-28 23:51:00,
2013-01-28 17:12:00,27.0,24.0,-100.00,WNW,303,7.0,12.0,89,0.00,,,0.00,30.000000,,2013-01-29 00:12:00,
2013-01-28 17:22:00,27.0,24.0,-100.00,WNW,303,7.0,12.0,89,0.00,,,0.00,30.000000,,2013-01-29 00:22:00,
2013-01-28 17:32:00,27.0,24.0,-100.00,WNW,303,7.0,12.0,89,0.00,,,0.00,30.000000,,2013-01-29 00:32:00,
2013-01-28 17:42:00,27.0,24.0,-100.00,WNW,303,7.0,12.0,89,0.00,,,0.00,30.000000,,2013-01-29 00:42:00,
2013-01-28 17:51:00,26.0,22.0,-100.00,NW,306,4.0,11.0,84,0.00,,,0.00,1.000000,,2013-01-29 00:51:00,
2013-01-28 18:12:00,26.0,22.0,-100.00,NW,306,4.0,11.0,84,0.00,,,0.00,1.000000,,2013-01-29 01:12:00,
2013-01-28 18:23:00,26.0,22.0,-100.00,NW,306,4.0,11.0,84,0.00,,,0.00,1.000000,,2013-01-29 01:23:00,
2013-01-28 18:32:00,26.0,22.0,-100.00,NW,306,4.0,11.0,84,0.00,,,0.00,1.000000,,2013-01-29 01:32:00,
2013-01-28 18:42:00,26.0,22.0,-100.00,NW,306,4.0,11.0,84,0.00,,,0.00,1.000000,,2013-01-29 01:42:00,
2013-01-28 18:51:00,25.0,22.0,-100.00,WSW,256,2.0,6.0,88,0.00,,,0.00,0.000000,,2013-01-29 01:51:00,
2013-01-28 19:12:00,25.0,22.0,-100.00,WSW,256,2.0,6.0,88,0.00,,,0.00,0.000000,,2013-01-29 02:12:00,
2013-01-28 19:22:00,25.0,22.0,-100.00,WSW,256,2.0,6.0,88,0.00,,,0.00,0.000000,,2013-01-29 02:22:00,
2013-01-28 19:33:00,25.0,22.0,-100.00,WSW,256,2.0,6.0,88,0.00,,,0.00,0.000000,,2013-01-29 02:33:00,
2013-01-28 19:42:00,25.0,22.0,-100.00,WSW,256,2.0,6.0,88,0.00,,,0.00,0.000000,,2013-01-29 02:42:00,
2013-01-28 19:51:00,24.0,22.0,-100.00,South,191,4.0,6.0,91,0.00,,,0.00,0.000000,,2013-01-29 02:51:00,
2013-01-28 20:22:00,24.0,22.0,-100.00,South,191,4.0,6.0,91,0.00,,,0.00,0.000000,,2013-01-29 03:22:00,
2013-01-28 20:32:00,24.0,22.0,-100.00,South,191,4.0,6.0,91,0.00,,,0.00,0.000000,,2013-01-29 03:32:00,
2013-01-28 20:42:00,24.0,22.0,-100.00,South,191,4.0,6.0,91,0.00,,,0.00,0.000000,,2013-01-29 03:42:00,
2013-01-28 20:51:00,23.0,21.0,-100.00,SSE,162,4.0,7.0,93,0.00,,,0.00,0.000000,,2013-01-29 03:51:00,
2013-01-28 21:11:00,23.0,21.0,-100.00,SSE,162,4.0,7.0,93,0.00,,,0.00,0.000000,,2013-01-29 04:11:00,
2013-01-28 21:22:00,23.0,21.0,-100.00,SSE,162,4.0,7.0,93,0.00,,,0.00,0.000000,,2013-01-29 04:22:00,
2013-01-28 21:32:00,23.0,21.0,-100.00,SSE,162,4.0,7.0,93,0.00,,,0.00,0.000000,,2013-01-29 04:32:00,
2013-01-28 21:42:00,23.0,21.0,-100.00,SSE,162,4.0,7.0,93,0.00,,,0.00,0.000000,,2013-01-29 04:42:00,
2013-01-28 21:51:00,21.0,20.0,-100.00,South,179,4.0,6.0,94,0.00,,,0.00,0.000000,,2013-01-29 04:51:00,
2013-01-28 22:21:00,21.0,20.0,-100.00,South,179,4.0,6.0,94,0.00,,,0.00,0.000000,,2013-01-29 05:21:00,
2013-01-28 22:32:00,21.0,20.0,-100.00,South,179,4.0,6.0,94,0.00,,,0.00,0.000000,,2013-01-29 05:32:00,
2013-01-28 22:42:00,21.0,20.0,-100.00,South,179,4.0,6.0,94,0.00,,,0.00,0.000000,,2013-01-29 05:42:00,
2013-01-28 22:51:00,21.0,19.0,-100.00,South,182,5.0,11.0,91,0.00,,,0.00,0.000000,,2013-01-29 05:51:00,
2013-01-28 23:11:00,21.0,19.0,-100.00,South,182,5.0,11.0,91,0.00,,,0.00,0.000000,,2013-01-29 06:11:00,
2013-01-28 23:21:00,21.0,19.0,-100.00,South,182,5.0,11.0,91,0.00,,,0.00,0.000000,,2013-01-29 06:21:00,
2013-01-28 23:32:00,21.0,19.0,-100.00,South,182,5.0,11.0,91,0.00,,,0.00,0.000000,,2013-01-29 06:32:00,
2013-01-28 23:42:00,21.0,19.0,-100.00,South,182,5.0,11.0,91,0.00,,,0.00,0.000000,,2013-01-29 06:42:00,
2013-01-28 23:51:00,19.0,16.0,-100.00,South,173,5.0,7.0,89,0.00,,,0.00,0.000000,,2013-01-29 06:51:00,